EJU96EM EDLW-LIBR

Flight info

Callsign EJU96EM
Flight time 1h 54m
Altitude 37000
Route GMH8Q GMH DCT DINKU DCT XERUM T104 WLD DCT ABISO DCT SABAD DCT ENOXA
Aircraft A320/M-SDE3FGHIRWY/LB1

Departure

Time 2026-05-05 19:50
Airport Dortmund Airport (EDLW)

Arrival

Time 2026-05-05 21:45
Airport Brindisi Airport (LIBR)
Time Latitude Longitude Altitude Speed Heading
2026-05-05 19:18 51.51579 7.61301 422 ft 0 kts 331°
2026-05-05 19:45 51.51603 7.61280 413 ft 9 kts 331°
2026-05-05 19:45 51.51632 7.61213 417 ft 10 kts 265°
2026-05-05 19:45 51.51595 7.61088 413 ft 16 kts 245°
2026-05-05 19:46 51.51534 7.60887 419 ft 23 kts 240°
2026-05-05 19:46 51.51461 7.60680 418 ft 16 kts 240°
2026-05-05 19:46 51.51425 7.60577 425 ft 0 kts 241°
2026-05-05 19:47 51.51424 7.60577 425 ft 0 kts 241°
2026-05-05 19:47 51.51402 7.60511 417 ft 14 kts 241°
2026-05-05 19:47 51.51362 7.60340 428 ft 15 kts 283°
2026-05-05 19:48 51.51428 7.60250 424 ft 11 kts 338°
2026-05-05 19:48 51.51491 7.60256 425 ft 9 kts 45°
2026-05-05 19:48 51.51507 7.60300 420 ft 0 kts 62°
2026-05-05 19:49 51.51508 7.60303 420 ft 3 kts 62°
2026-05-05 19:49 51.51632 7.60651 419 ft 74 kts 60°
2026-05-05 19:49 51.51997 7.61685 413 ft 136 kts 59°
2026-05-05 19:50 51.52511 7.63132 858 ft 152 kts 60°
2026-05-05 19:50 51.52998 7.64652 1651 ft 154 kts 59°
2026-05-05 19:50 51.53536 7.66206 2092 ft 169 kts 60°
2026-05-05 19:50 51.54162 7.67954 2379 ft 192 kts 60°
2026-05-05 19:51 51.54881 7.69957 2732 ft 218 kts 60°
2026-05-05 19:51 51.55665 7.72152 3131 ft 241 kts 63°
2026-05-05 19:51 51.56087 7.74784 3778 ft 251 kts 95°
2026-05-05 19:51 51.55412 7.77406 4604 ft 259 kts 131°
2026-05-05 19:52 51.53957 7.79074 5410 ft 267 kts 159°
2026-05-05 19:52 51.52097 7.79347 6210 ft 274 kts 187°
2026-05-05 19:52 51.50237 7.78587 7025 ft 279 kts 200°
2026-05-05 19:52 51.48435 7.77378 7815 ft 282 kts 200°
2026-05-05 19:53 51.46588 7.76249 8625 ft 286 kts 199°
2026-05-05 19:53 51.44675 7.75296 9420 ft 289 kts 188°
2026-05-05 19:53 51.42670 7.75164 10147 ft 292 kts 173°
2026-05-05 19:53 51.40624 7.75909 10396 ft 313 kts 159°
2026-05-05 19:54 51.38498 7.77147 10611 ft 335 kts 159°
2026-05-05 19:54 51.36280 7.78423 11159 ft 343 kts 159°
2026-05-05 19:54 51.34021 7.79705 11828 ft 346 kts 160°
2026-05-05 19:54 51.31739 7.80990 12528 ft 349 kts 160°
2026-05-05 19:55 51.29438 7.82280 13226 ft 352 kts 160°
2026-05-05 19:55 51.27115 7.83580 13851 ft 356 kts 161°
2026-05-05 19:55 51.24764 7.84891 14452 ft 359 kts 161°
2026-05-05 19:55 51.22400 7.86207 15064 ft 361 kts 161°
2026-05-05 19:56 51.20019 7.87536 15669 ft 364 kts 161°
2026-05-05 19:56 51.17662 7.89066 16261 ft 367 kts 153°
2026-05-05 19:56 51.15511 7.91278 16845 ft 370 kts 141°
2026-05-05 19:56 51.13546 7.93952 17434 ft 373 kts 140°
2026-05-05 19:57 51.11575 7.96647 18017 ft 375 kts 140°
2026-05-05 19:57 51.09578 7.99359 18517 ft 378 kts 140°
2026-05-05 19:57 51.07568 8.02079 19007 ft 380 kts 140°
2026-05-05 19:57 51.05546 8.04804 19487 ft 383 kts 140°
2026-05-05 19:58 51.03501 8.07554 19950 ft 386 kts 140°
2026-05-05 19:58 51.01449 8.10313 20451 ft 388 kts 140°
2026-05-05 19:58 50.99386 8.13088 20933 ft 390 kts 140°
2026-05-05 19:58 50.97280 8.15920 21418 ft 392 kts 140°
2026-05-05 19:59 50.95222 8.18684 21885 ft 394 kts 140°
2026-05-05 19:59 50.93121 8.21509 22340 ft 397 kts 140°
2026-05-05 19:59 50.91013 8.24346 22796 ft 399 kts 140°
2026-05-05 19:59 50.88889 8.27196 23245 ft 401 kts 140°
2026-05-05 20:00 50.86752 8.30051 23635 ft 403 kts 140°
2026-05-05 20:00 50.84601 8.32915 24022 ft 405 kts 140°
2026-05-05 20:00 50.82472 8.35745 24406 ft 406 kts 140°
2026-05-05 20:00 50.80274 8.38667 24792 ft 407 kts 140°
2026-05-05 20:01 50.78131 8.41516 25161 ft 409 kts 140°
2026-05-05 20:01 50.75956 8.44411 25516 ft 410 kts 140°
2026-05-05 20:01 50.73769 8.47318 25890 ft 411 kts 140°
2026-05-05 20:01 50.71576 8.50225 26265 ft 412 kts 140°
2026-05-05 20:02 50.69376 8.53140 26627 ft 414 kts 140°
2026-05-05 20:02 50.67168 8.56067 26979 ft 415 kts 140°
2026-05-05 20:02 50.64952 8.58999 27327 ft 417 kts 140°
2026-05-05 20:02 50.62727 8.61938 27668 ft 418 kts 140°
2026-05-05 20:03 50.60490 8.64886 27998 ft 420 kts 140°
2026-05-05 20:03 50.58244 8.67839 28324 ft 421 kts 140°
2026-05-05 20:03 50.55990 8.70800 28630 ft 423 kts 140°
2026-05-05 20:03 50.53726 8.73770 28942 ft 424 kts 139°
2026-05-05 20:04 50.51460 8.76741 29240 ft 425 kts 139°
2026-05-05 20:04 50.49180 8.79723 29537 ft 427 kts 140°
2026-05-05 20:04 50.46893 8.82708 29828 ft 428 kts 140°
2026-05-05 20:04 50.44596 8.85702 30088 ft 429 kts 140°
2026-05-05 20:05 50.42305 8.88685 30438 ft 428 kts 140°
2026-05-05 20:05 50.40015 8.91662 30812 ft 426 kts 140°
2026-05-05 20:05 50.37741 8.94616 31151 ft 424 kts 140°
2026-05-05 20:05 50.35469 8.97566 31515 ft 423 kts 140°
2026-05-05 20:06 50.33207 9.00501 31862 ft 421 kts 140°
2026-05-05 20:06 50.30956 9.03420 32219 ft 420 kts 140°
2026-05-05 20:06 50.28710 9.06327 32568 ft 419 kts 140°
2026-05-05 20:06 50.26463 9.09230 32831 ft 419 kts 140°
2026-05-05 20:07 50.24212 9.12137 33143 ft 419 kts 140°
2026-05-05 20:07 50.21972 9.15030 33465 ft 418 kts 141°
2026-05-05 20:07 50.19731 9.17915 33799 ft 417 kts 141°
2026-05-05 20:07 50.17495 9.20790 34049 ft 416 kts 141°
2026-05-05 20:08 50.15255 9.23665 34283 ft 417 kts 141°
2026-05-05 20:08 50.13015 9.26526 34489 ft 417 kts 142°
2026-05-05 20:08 50.10762 9.29397 34692 ft 418 kts 142°
2026-05-05 20:08 50.08514 9.32266 34886 ft 419 kts 142°
2026-05-05 20:09 50.06288 9.35117 35080 ft 420 kts 142°
2026-05-05 20:09 50.04031 9.38009 35273 ft 421 kts 142°
2026-05-05 20:09 50.01763 9.40909 35412 ft 423 kts 142°
2026-05-05 20:09 49.99484 9.43812 35568 ft 425 kts 142°
2026-05-05 20:10 49.97192 9.46725 35731 ft 426 kts 142°
2026-05-05 20:10 49.94897 9.49637 35925 ft 426 kts 142°
2026-05-05 20:10 49.92600 9.52548 36106 ft 427 kts 142°
2026-05-05 20:10 49.90296 9.55458 36284 ft 427 kts 143°
2026-05-05 20:11 49.87988 9.58374 36442 ft 428 kts 143°
2026-05-05 20:11 49.85679 9.61289 36617 ft 429 kts 143°
2026-05-05 20:11 49.83370 9.64201 36783 ft 429 kts 143°
2026-05-05 20:12 49.78722 9.70048 36828 ft 430 kts 143°
2026-05-05 20:12 49.74067 9.75891 36827 ft 431 kts 143°
2026-05-05 20:13 49.69404 9.81728 36831 ft 431 kts 143°
2026-05-05 20:13 49.64738 9.87560 36833 ft 431 kts 143°
2026-05-05 20:14 49.60072 9.93380 36816 ft 431 kts 143°
2026-05-05 20:14 49.55399 9.99186 36827 ft 432 kts 144°
2026-05-05 20:15 49.50722 10.04984 36829 ft 432 kts 144°
2026-05-05 20:15 49.46039 10.10779 36832 ft 432 kts 144°
2026-05-05 20:16 49.41350 10.16561 36840 ft 433 kts 144°
2026-05-05 20:16 49.36648 10.22344 36846 ft 433 kts 144°
2026-05-05 20:17 49.31980 10.28075 36826 ft 433 kts 144°
2026-05-05 20:17 49.27273 10.33829 36850 ft 433 kts 144°
2026-05-05 20:18 49.22467 10.39352 36855 ft 430 kts 152°
2026-05-05 20:18 49.17332 10.44030 36865 ft 430 kts 152°
2026-05-05 20:19 49.12180 10.48721 36875 ft 431 kts 152°
2026-05-05 20:19 49.07035 10.53403 36876 ft 431 kts 152°
2026-05-05 20:20 49.01883 10.58076 36876 ft 431 kts 153°
2026-05-05 20:20 48.96719 10.62742 36871 ft 431 kts 153°
2026-05-05 20:21 48.92425 10.66611 36860 ft 431 kts 153°
2026-05-05 20:21 48.87262 10.71251 36874 ft 431 kts 153°
2026-05-05 20:22 48.82122 10.75948 36871 ft 433 kts 148°
2026-05-05 20:22 48.77657 10.82187 36851 ft 439 kts 138°
2026-05-05 20:23 48.72725 10.89932 36835 ft 440 kts 138°
2026-05-05 20:23 48.69162 10.95511 36811 ft 440 kts 139°
2026-05-05 20:24 48.64901 11.02152 36826 ft 440 kts 139°
2026-05-05 20:24 48.60624 11.08781 36835 ft 440 kts 139°
2026-05-05 20:25 48.56335 11.15378 36839 ft 440 kts 140°
2026-05-05 20:25 48.51973 11.21851 36838 ft 440 kts 141°
2026-05-05 20:26 48.47578 11.28265 36852 ft 440 kts 141°
2026-05-05 20:26 48.43186 11.34704 36835 ft 441 kts 141°
2026-05-05 20:27 48.38799 11.41154 36844 ft 441 kts 141°
2026-05-05 20:27 48.34405 11.47604 36854 ft 441 kts 140°
2026-05-05 20:28 48.30013 11.54039 36863 ft 441 kts 141°
2026-05-05 20:28 48.25606 11.60462 36868 ft 441 kts 141°
2026-05-05 20:29 48.21197 11.66870 36859 ft 441 kts 141°
2026-05-05 20:29 48.16790 11.73263 36867 ft 441 kts 141°
2026-05-05 20:30 48.12411 11.79597 36869 ft 440 kts 141°
2026-05-05 20:30 48.07997 11.85952 36874 ft 440 kts 141°
2026-05-05 20:31 48.03610 11.92257 36871 ft 440 kts 141°
2026-05-05 20:31 47.99199 11.98591 36838 ft 440 kts 141°
2026-05-05 20:32 47.94788 12.04918 36846 ft 440 kts 141°
2026-05-05 20:32 47.90365 12.11244 36850 ft 440 kts 141°
2026-05-05 20:33 47.85929 12.17557 36857 ft 441 kts 141°
2026-05-05 20:33 47.81505 12.23848 36861 ft 441 kts 141°
2026-05-05 20:34 47.77092 12.30103 36851 ft 441 kts 141°
2026-05-05 20:34 47.72649 12.36383 36859 ft 441 kts 141°
2026-05-05 20:35 47.68204 12.42648 36867 ft 440 kts 141°
2026-05-05 20:35 47.63759 12.48906 36866 ft 440 kts 142°
2026-05-05 20:36 47.59313 12.55158 36867 ft 440 kts 142°
2026-05-05 20:36 47.54864 12.61401 36867 ft 440 kts 142°
2026-05-05 20:37 47.50404 12.67622 36829 ft 440 kts 141°
2026-05-05 20:37 47.45972 12.73790 36838 ft 441 kts 141°
2026-05-05 20:38 47.41503 12.80005 36853 ft 441 kts 142°
2026-05-05 20:38 47.37030 12.86211 36866 ft 442 kts 142°
2026-05-05 20:39 47.32550 12.92404 36866 ft 441 kts 142°
2026-05-05 20:39 47.28061 12.98597 36876 ft 442 kts 141°
2026-05-05 20:40 47.23571 13.04792 36876 ft 443 kts 141°
2026-05-05 20:40 47.19066 13.10985 36891 ft 443 kts 141°
2026-05-05 20:41 47.14552 13.17171 36910 ft 444 kts 141°
2026-05-05 20:41 47.10028 13.23347 36933 ft 444 kts 142°
2026-05-05 20:42 47.05493 13.29524 36918 ft 444 kts 141°
2026-05-05 20:42 47.00959 13.35689 36933 ft 445 kts 141°
2026-05-05 20:43 46.96413 13.41868 36934 ft 445 kts 141°
2026-05-05 20:43 46.91867 13.48025 36949 ft 446 kts 141°
2026-05-05 20:44 46.87303 13.54184 36956 ft 447 kts 142°
2026-05-05 20:44 46.82722 13.60349 36942 ft 447 kts 142°
2026-05-05 20:45 46.75871 13.69550 36950 ft 449 kts 142°
2026-05-05 20:45 46.71264 13.75720 36944 ft 450 kts 142°
2026-05-05 20:46 46.66646 13.81878 36953 ft 451 kts 142°
2026-05-05 20:46 46.62016 13.88046 36950 ft 452 kts 142°
2026-05-05 20:47 46.57376 13.94232 36951 ft 453 kts 142°
2026-05-05 20:47 46.52722 14.00409 36948 ft 454 kts 142°
2026-05-05 20:48 46.48044 14.06578 36951 ft 455 kts 143°
2026-05-05 20:48 46.43362 14.12752 36958 ft 455 kts 143°
2026-05-05 20:49 46.38672 14.18930 36971 ft 456 kts 142°
2026-05-05 20:49 46.33972 14.25099 36975 ft 457 kts 142°
2026-05-05 20:50 46.29248 14.31271 36982 ft 458 kts 142°
2026-05-05 20:50 46.24134 14.36564 36983 ft 448 kts 159°
2026-05-05 20:51 46.18492 14.40296 36987 ft 446 kts 161°
2026-05-05 20:51 46.12832 14.43997 36993 ft 447 kts 161°
2026-05-05 20:52 46.07201 14.47679 36975 ft 448 kts 160°
2026-05-05 20:52 46.01506 14.51402 36986 ft 450 kts 161°
2026-05-05 20:53 45.95790 14.55114 36993 ft 451 kts 161°
2026-05-05 20:53 45.90056 14.58820 37004 ft 452 kts 161°
2026-05-05 20:54 45.84314 14.62535 37018 ft 452 kts 161°
2026-05-05 20:54 45.78575 14.66251 37017 ft 453 kts 161°
2026-05-05 20:55 45.72827 14.69958 37007 ft 453 kts 160°
2026-05-05 20:55 45.67070 14.73653 37010 ft 454 kts 160°
2026-05-05 20:56 45.61310 14.77343 37022 ft 454 kts 160°
2026-05-05 20:56 45.55536 14.81041 37022 ft 455 kts 161°
2026-05-05 20:57 45.49792 14.84702 37039 ft 455 kts 161°
2026-05-05 20:57 45.44012 14.88432 37044 ft 457 kts 159°
2026-05-05 20:58 45.38312 14.92466 37021 ft 458 kts 158°
2026-05-05 20:58 45.32634 14.96609 37032 ft 459 kts 158°
2026-05-05 20:59 45.26921 15.00701 37023 ft 459 kts 158°
2026-05-05 20:59 45.21198 15.04738 37032 ft 460 kts 159°
2026-05-05 21:00 45.15462 15.08752 37031 ft 460 kts 159°
2026-05-05 21:00 45.09712 15.12773 37030 ft 461 kts 159°
2026-05-05 21:01 45.03958 15.16796 37029 ft 462 kts 159°
2026-05-05 21:01 44.98192 15.20834 37043 ft 463 kts 159°
2026-05-05 21:02 44.92421 15.24871 37032 ft 463 kts 159°
2026-05-05 21:02 44.86671 15.28865 37035 ft 464 kts 160°
2026-05-05 21:03 44.80870 15.32890 37045 ft 465 kts 159°
2026-05-05 21:03 44.75064 15.36908 37039 ft 465 kts 159°
2026-05-05 21:04 44.69251 15.40913 37052 ft 465 kts 159°
2026-05-05 21:04 44.63435 15.44918 37062 ft 466 kts 159°
2026-05-05 21:05 44.57617 15.48931 37069 ft 466 kts 159°
2026-05-05 21:05 44.51789 15.52929 37078 ft 466 kts 159°
2026-05-05 21:06 44.45953 15.56921 37043 ft 467 kts 159°
2026-05-05 21:06 44.40111 15.60908 37065 ft 467 kts 159°
2026-05-05 21:07 44.34272 15.64888 37073 ft 467 kts 159°
2026-05-05 21:07 44.28427 15.68869 37062 ft 467 kts 159°
2026-05-05 21:08 44.23569 15.72171 37076 ft 467 kts 159°
2026-05-05 21:08 44.16771 15.76772 37081 ft 467 kts 159°
2026-05-05 21:09 44.10924 15.80713 37065 ft 467 kts 159°
2026-05-05 21:09 44.05073 15.84655 37058 ft 467 kts 159°
2026-05-05 21:10 44.00202 15.87938 37062 ft 468 kts 159°
2026-05-05 21:10 43.94341 15.91879 37062 ft 468 kts 159°
2026-05-05 21:11 43.88479 15.95808 37069 ft 468 kts 159°
2026-05-05 21:11 43.82606 15.99728 37050 ft 469 kts 159°
2026-05-05 21:12 43.76724 16.03641 37047 ft 470 kts 159°
2026-05-05 21:12 43.70833 16.07562 37058 ft 470 kts 159°
2026-05-05 21:13 43.64930 16.11484 37061 ft 471 kts 159°
2026-05-05 21:13 43.59015 16.15398 37084 ft 471 kts 159°
2026-05-05 21:14 43.53104 16.19304 37090 ft 471 kts 159°
2026-05-05 21:14 43.47195 16.23204 37096 ft 471 kts 159°
2026-05-05 21:15 43.41283 16.27099 37074 ft 471 kts 159°
2026-05-05 21:15 43.35369 16.30987 37085 ft 471 kts 159°
2026-05-05 21:16 43.29450 16.34864 37066 ft 471 kts 159°
2026-05-05 21:16 43.23522 16.38735 37061 ft 472 kts 159°
2026-05-05 21:17 43.17590 16.42599 37052 ft 472 kts 159°
2026-05-05 21:17 43.11688 16.46444 37057 ft 473 kts 159°
2026-05-05 21:18 43.05744 16.50311 37068 ft 473 kts 159°
2026-05-05 21:18 42.99803 16.54170 37053 ft 473 kts 159°
2026-05-05 21:19 42.93853 16.58011 37060 ft 473 kts 159°
2026-05-05 21:19 42.87893 16.61848 37065 ft 473 kts 159°
2026-05-05 21:20 42.81934 16.65692 37070 ft 474 kts 159°
2026-05-05 21:20 42.75972 16.69541 37064 ft 474 kts 159°
2026-05-05 21:21 42.70005 16.73369 37052 ft 475 kts 159°
2026-05-05 21:21 42.64018 16.77194 37052 ft 475 kts 159°
2026-05-05 21:22 42.58027 16.81016 37043 ft 476 kts 159°
2026-05-05 21:22 42.52024 16.84832 37053 ft 476 kts 159°
2026-05-05 21:23 42.46021 16.88643 37057 ft 477 kts 159°
2026-05-05 21:23 42.40020 16.92449 37062 ft 477 kts 159°
2026-05-05 21:24 42.34009 16.96263 36712 ft 477 kts 159°
2026-05-05 21:24 42.30994 16.98175 35505 ft 479 kts 159°
2026-05-05 21:24 42.27988 17.00077 34626 ft 473 kts 160°
2026-05-05 21:25 42.25024 17.01953 33657 ft 469 kts 160°
2026-05-05 21:25 42.22083 17.03814 32695 ft 464 kts 160°
2026-05-05 21:25 42.19174 17.05645 31728 ft 460 kts 159°
2026-05-05 21:25 42.16253 17.07476 30995 ft 462 kts 159°
2026-05-05 21:26 42.13383 17.09271 30398 ft 461 kts 159°
2026-05-05 21:26 42.10438 17.11114 29706 ft 460 kts 158°
2026-05-05 21:26 42.07587 17.12901 29083 ft 457 kts 158°
2026-05-05 21:26 42.04715 17.14702 28455 ft 454 kts 158°
2026-05-05 21:27 42.01858 17.16495 27839 ft 451 kts 158°
2026-05-05 21:27 41.99024 17.18272 27228 ft 448 kts 158°
2026-05-05 21:27 41.96208 17.20032 26622 ft 445 kts 158°
2026-05-05 21:27 41.93408 17.21776 26030 ft 442 kts 158°
2026-05-05 21:28 41.90629 17.23506 25431 ft 439 kts 158°
2026-05-05 21:28 41.87866 17.25229 24864 ft 436 kts 158°
2026-05-05 21:28 41.85124 17.26934 24300 ft 432 kts 158°
2026-05-05 21:28 41.82413 17.28617 23761 ft 428 kts 158°
2026-05-05 21:29 41.79718 17.30291 23174 ft 424 kts 158°
2026-05-05 21:29 41.77062 17.31942 22676 ft 418 kts 158°
2026-05-05 21:29 41.74440 17.33569 22192 ft 413 kts 158°
2026-05-05 21:29 41.71852 17.35172 21702 ft 408 kts 158°
2026-05-05 21:30 41.69291 17.36757 21214 ft 403 kts 158°
2026-05-05 21:30 41.66756 17.38322 20728 ft 399 kts 158°
2026-05-05 21:30 41.64247 17.39865 20236 ft 396 kts 158°
2026-05-05 21:30 41.61754 17.41397 19743 ft 393 kts 158°
2026-05-05 21:31 41.59276 17.42923 19236 ft 391 kts 158°
2026-05-05 21:31 41.56807 17.44446 18738 ft 389 kts 158°
2026-05-05 21:31 41.54351 17.45958 18207 ft 388 kts 158°
2026-05-05 21:31 41.51902 17.47466 17679 ft 386 kts 157°
2026-05-05 21:32 41.49478 17.48956 17174 ft 383 kts 157°
2026-05-05 21:32 41.47067 17.50436 16676 ft 380 kts 157°
2026-05-05 21:32 41.44674 17.51910 16181 ft 378 kts 157°
2026-05-05 21:32 41.42325 17.53352 15695 ft 376 kts 157°
2026-05-05 21:33 41.39953 17.54804 15203 ft 374 kts 157°
2026-05-05 21:33 41.37565 17.56263 14706 ft 373 kts 157°
2026-05-05 21:33 41.35243 17.57679 14222 ft 371 kts 157°
2026-05-05 21:33 41.32897 17.59110 13707 ft 370 kts 157°
2026-05-05 21:34 41.30563 17.60533 13192 ft 367 kts 157°
2026-05-05 21:34 41.28253 17.61942 12693 ft 364 kts 157°
2026-05-05 21:34 41.25962 17.63340 12202 ft 361 kts 157°
2026-05-05 21:34 41.23694 17.64724 11699 ft 358 kts 157°
2026-05-05 21:35 41.21441 17.66096 11198 ft 355 kts 157°
2026-05-05 21:35 41.19205 17.67436 10709 ft 352 kts 158°
2026-05-05 21:35 41.16965 17.68670 10428 ft 342 kts 160°
2026-05-05 21:35 41.14793 17.69802 10306 ft 329 kts 160°
2026-05-05 21:36 41.12693 17.70872 10186 ft 317 kts 161°
2026-05-05 21:36 41.10670 17.71903 10070 ft 306 kts 161°
2026-05-05 21:36 41.08705 17.72911 9851 ft 299 kts 160°
2026-05-05 21:36 41.06778 17.73907 9320 ft 295 kts 160°
2026-05-05 21:37 41.04884 17.74895 8934 ft 292 kts 161°
2026-05-05 21:37 41.02998 17.75879 8557 ft 291 kts 161°
2026-05-05 21:37 41.01117 17.76860 8176 ft 290 kts 161°
2026-05-05 21:37 40.99247 17.77836 7806 ft 287 kts 161°
2026-05-05 21:38 40.97395 17.78801 7436 ft 285 kts 161°
2026-05-05 21:38 40.95551 17.79762 7075 ft 284 kts 160°
2026-05-05 21:38 40.93744 17.80702 6713 ft 282 kts 160°
2026-05-05 21:38 40.91927 17.81650 6345 ft 280 kts 160°
2026-05-05 21:39 40.90048 17.82154 5887 ft 276 kts 187°
2026-05-05 21:39 40.88304 17.81250 5495 ft 271 kts 220°
2026-05-05 21:39 40.87212 17.79265 5124 ft 269 kts 242°
2026-05-05 21:39 40.86319 17.77106 4691 ft 266 kts 228°
2026-05-05 21:40 40.84823 17.75800 4323 ft 258 kts 197°
2026-05-05 21:40 40.83088 17.75322 3973 ft 254 kts 180°
2026-05-05 21:40 40.81426 17.75966 3655 ft 251 kts 149°
2026-05-05 21:40 40.80066 17.77387 3333 ft 245 kts 143°
2026-05-05 21:41 40.78792 17.78791 3017 ft 232 kts 140°
2026-05-05 21:41 40.77625 17.80189 2733 ft 221 kts 140°
2026-05-05 21:41 40.76521 17.81551 2458 ft 215 kts 139°
2026-05-05 21:41 40.75449 17.82881 2166 ft 208 kts 139°
2026-05-05 21:42 40.74416 17.84162 1900 ft 201 kts 140°
2026-05-05 21:42 40.73416 17.85399 1634 ft 193 kts 140°
2026-05-05 21:42 40.72482 17.86551 1407 ft 174 kts 140°
2026-05-05 21:42 40.71648 17.87581 1175 ft 156 kts 140°
2026-05-05 21:43 40.70878 17.88528 967 ft 148 kts 140°
2026-05-05 21:43 40.70152 17.89418 794 ft 138 kts 140°
2026-05-05 21:43 40.69458 17.90267 614 ft 135 kts 139°
2026-05-05 21:43 40.68768 17.91111 411 ft 136 kts 140°
2026-05-05 21:44 40.68076 17.91956 236 ft 134 kts 140°
2026-05-05 21:44 40.67400 17.92780 56 ft 133 kts 140°
2026-05-05 21:44 40.66744 17.93558 33 ft 113 kts 136°
2026-05-05 21:44 40.66271 17.94146 35 ft 74 kts 137°
2026-05-05 21:45 40.65970 17.94517 32 ft 44 kts 137°